[[{"header":{"parameterUnit":"m.s-1","parameterCategory":1,"la1":30.2991,"la2":30.254,"lo1":-89.0895,"lo2":-89.0444,"dy":0.0017,"dx":0.0017,"nx":28,"ny":28,"refTime":"2023-09-06T09:00:00:Z","depth":0,"parameterNumber":2,"parameterNumberName":"U-component_of_WINDS"},"data":[0,0,0,0,0,0,0,0,0,0,0,0,0,0,0,0,0,0,0,0,0,0,0,0,0,0,0,0,0,0,0,0,0,0,0,0,0,0,0,0,0,0,0,0,0,0,0,0,0,0,0,0,0,0,0,0,0,0,-1.4778,-1.4778,0,-1.4718,-1.4717,-1.4717,-1.4651,-1.465,-1.4649,-1.4648,-1.4586,-1.4585,-1.4584,0,0,0,0,0,0,0,0,0,0,0,0,0,-1.4836,-1.4835,-1.4778,-1.4777,-1.4777,-1.4718,-1.4717,-1.4717,-1.4651,-1.465,-1.4649,-1.4648,-1.4586,-1.4585,-1.4584,0,0,0,0,0,0,0,0,0,0,0,0,0,-1.4797,-1.4835,-1.4778,-1.4737,-1.4733,-1.4718,-1.4717,-1.4716,-1.4652,-1.465,-1.4649,-1.4648,-1.4586,-1.4585,-1.4584,-1.4605,0,0,-1.458,-1.458,0,0,0,0,0,0,0,0,-1.4799,-1.4795,-1.4744,-1.474,-1.4735,-1.4691,-1.4715,-1.4679,-1.4652,-1.4682,-1.4648,-1.4647,-1.4622,-1.4618,-1.4609,-1.4602,-1.4599,-1.458,-1.458,-1.4579,-1.4579,0,0,0,0,0,0,0,-1.4802,-1.4797,-1.4754,-1.4743,-1.4738,-1.4721,-1.4714,-1.4708,-1.4661,-1.468,-1.4675,-1.4669,-1.4619,-1.4611,-1.4607,-1.4598,-1.458,-1.4579,-1.4578,-1.4578,-1.4605,-1.4607,0,0,0,0,0,0,-1.4811,-1.48,-1.4756,-1.4753,-1.4764,-1.4722,-1.4714,-1.4706,-1.4661,-1.4652,-1.467,-1.4666,-1.4613,-1.4609,-1.4605,-1.4626,-1.4579,-1.4578,-1.4577,-1.4604,-1.4606,-1.4607,0,0,0,0,0,0,-1.4812,-1.4808,-1.4759,-1.4775,-1.4767,-1.4722,-1.4715,-1.4706,-1.4697,-1.4653,-1.4644,-1.467,-1.4612,-1.4607,-1.4606,-1.4623,-1.4577,-1.4576,-1.4602,-1.4604,-1.4606,-1.467,0,0,0,0,0,0,-1.4814,-1.4809,-1.4816,-1.4775,-1.4767,-1.4761,-1.4716,-1.4706,-1.4696,-1.469,-1.4651,-1.4643,-1.4611,-1.4608,-1.4604,-1.4621,-1.4575,-1.46,-1.4603,-1.4606,-1.4666,-1.4674,-1.4681,0,0,0,0,0,-1.4817,-1.4836,-1.4817,-1.4812,-1.4775,-1.4762,-1.4757,-1.4719,-1.4698,-1.4705,-1.4676,-1.4644,-1.4622,-1.4608,-1.4604,-1.462,-1.4599,-1.4602,-1.4606,-1.4662,-1.4672,-1.468,0,0,0,0,0,0,-1.4879,-1.483,-1.4808,-1.4815,-1.4793,-1.4751,-1.4759,-1.4731,-1.4714,-1.4709,-1.4663,-1.4655,-1.4659,-1.464,-1.4625,-1.4638,-1.4606,-1.4609,-1.4651,-1.466,-1.4667,-1.4671,-1.4574,0,0,0,0,0,-1.4894,-1.4888,-1.4845,-1.4855,-1.4845,-1.4804,-1.4797,-1.477,-1.4745,-1.4736,-1.4707,-1.4684,-1.4672,-1.4665,-1.4651,-1.4663,-1.4653,-1.4672,-1.468,-1.4686,-1.4688,-1.4693,-1.4701,-1.4618,-1.4618,-1.4618,0,0,-1.4924,-1.4896,-1.4895,-1.4867,-1.4847,-1.4841,-1.4797,-1.4792,-1.4787,-1.4735,-1.4732,-1.4711,-1.4682,-1.4688,-1.4689,-1.4671,-1.471,-1.469,-1.4695,-1.4694,-1.4698,-1.4705,-1.4713,-1.462,-1.462,-1.4619,0,0,-1.4976,-1.4954,-1.496,-1.4942,-1.4912,-1.4885,-1.4887,-1.4849,-1.4833,-1.4829,-1.479,-1.4784,-1.4763,-1.4745,-1.4733,-1.4779,-1.4749,-1.4776,-1.4814,-1.4819,-1.4826,-1.4832,-1.4848,-1.4854,-1.4779,-1.4779,-1.4779,0,-1.5017,-1.5007,-1.4967,-1.4965,-1.4954,-1.4907,-1.4913,-1.4896,-1.4864,-1.4857,-1.4839,-1.4813,-1.479,-1.4791,-1.4803,-1.4795,-1.4795,-1.4779,-1.4828,-1.4834,-1.4838,-1.4853,-1.4859,-1.4782,-1.4782,-1.4781,-1.4781,0,-1.5058,-1.5052,-1.5061,-1.5031,-1.5021,-1.5023,-1.4984,-1.4978,-1.4953,-1.4928,-1.4925,-1.4897,-1.4877,-1.4875,-1.485,-1.4872,-1.4863,-1.4837,-1.4803,-1.485,-1.4864,-1.4869,-1.4787,-1.4786,-1.4785,-1.4784,0,0,-1.5147,-1.5096,-1.51,-1.5086,-1.5051,-1.5045,-1.5045,-1.5026,-1.5022,-1.5002,-1.5001,-1.4986,-1.4962,-1.4948,-1.4921,-1.4926,-1.4964,-1.4899,-1.4898,-1.4912,-1.4987,-1.5007,-1.5014,-1.4944,-1.4945,-1.4946,-1.499,0,-1.5192,-1.519,-1.5155,-1.5162,-1.5156,-1.5112,-1.5112,-1.509,-1.5067,-1.5058,-1.5032,-1.5022,-1.4992,-1.4983,-1.4986,-1.4959,-1.4978,-1.4955,-1.4942,-1.4943,-1.4951,-1.5021,-1.5041,-1.5084,-1.4995,-1.4996,-1.4996,0,-1.5244,-1.5228,-1.5235,-1.52,-1.5196,-1.5196,-1.5176,-1.5169,-1.5143,-1.5126,-1.5112,-1.5081,-1.5078,-1.5048,-1.5044,-1.5029,-1.5022,-1.5008,-1.5008,-1.5005,-1.4972,-1.5019,-1.5096,-1.5103,-1.5004,-1.5003,-1.5003,0,-1.5308,-1.5287,-1.5289,-1.5279,-1.5238,-1.5239,-1.5222,-1.5196,-1.5187,-1.5169,-1.5163,-1.5146,-1.5136,-1.5123,-1.5088,-1.5069,-1.5088,-1.5055,-1.5074,-1.5075,-1.5079,-1.5079,-1.5156,-1.5076,-1.5076,-1.5075,-1.5075,0,-1.5362,-1.5368,-1.5317,-1.5318,-1.5324,-1.5283,-1.529,-1.5269,-1.5246,-1.5242,-1.5202,-1.5199,-1.5154,-1.5146,-1.5119,-1.512,-1.5116,-1.5101,-1.5094,-1.5105,-1.5107,-1.5099,-1.5095,-1.5077,-1.5077,-1.5076,-1.5076,0,-1.5434,-1.54,-1.5399,-1.5361,-1.5351,-1.5357,-1.5324,-1.5323,-1.5298,-1.5294,-1.529,-1.5251,-1.5239,-1.5204,-1.5183,-1.5165,-1.5174,-1.516,-1.5183,-1.5178,-1.5199,-1.5197,-1.5272,-1.528,-1.5196,-1.5197,-1.5198,0,-1.547,-1.5474,-1.5436,-1.5431,-1.5416,-1.5408,-1.5399,-1.536,-1.5352,-1.5324,-1.5326,-1.5312,-1.5298,-1.5282,-1.5251,-1.5236,-1.5221,-1.5248,-1.5218,-1.5229,-1.5221,-1.5221,-1.5221,-1.5255,-1.5256,-1.5257,-1.5258,0,-1.5539,-1.5522,-1.551,-1.5493,-1.5483,-1.5468,-1.545,-1.5448,-1.5404,-1.5397,-1.5385,-1.5375,-1.5355,-1.5341,-1.532,-1.5302,-1.5273,-1.5268,-1.5271,-1.5282,-1.5295,-1.5288,-1.52,-1.5266,-1.5265,-1.5264,-1.5264,-1.5264,-1.5593,-1.5595,-1.5569,-1.5557,-1.554,-1.5525,-1.5522,-1.5497,-1.5487,-1.5467,-1.5445,-1.5435,-1.541,-1.538,-1.5364,-1.5357,-1.5341,-1.5346,-1.5347,-1.5349,-1.5354,-1.5297,-1.5353,-1.5353,-1.5352,-1.5352,-1.5352,0,-1.566,-1.5641,-1.5631,-1.5607,-1.5599,-1.5572,-1.5551,-1.5546,-1.5538,-1.5518,-1.5505,-1.5492,-1.5479,-1.5447,-1.5431,-1.5431,-1.5417,-1.5428,-1.5427,-1.5424,-1.5369,-1.5368,-1.5439,-1.5439,-1.5439,-1.5439,-1.5439,-1.5439,-1.5693,-1.5694,-1.5674,-1.5667,-1.5647,-1.5639,-1.5629,-1.5615,-1.5598,-1.5585,-1.5574,-1.5554,-1.5529,-1.551,-1.5497,-1.5488,-1.5484,-1.5499,-1.5486,-1.5436,-1.5427,-1.5419,-1.5418,-1.5499,-1.5499,-1.5541,-1.5541,-1.5542]},{"header":{"parameterUnit":"m.s-1","parameterCategory":1,"la1":30.2991,"la2":30.254,"lo1":-89.0895,"lo2":-89.0444,"dy":0.0017,"dx":0.0017,"nx":28,"ny":28,"refTime":"2023-09-06T09:00:00:Z","depth":0,"parameterNumber":3,"parameterNumberName":"V-component_of_WINDS"},"data":[0,0,0,0,0,0,0,0,0,0,0,0,0,0,0,0,0,0,0,0,0,0,0,0,0,0,0,0,0,0,0,0,0,0,0,0,0,0,0,0,0,0,0,0,0,0,0,0,0,0,0,0,0,0,0,0,0,0,3.83,3.8301,0,3.8324,3.8324,3.8324,3.8312,3.8312,3.8311,3.8311,3.8331,3.8333,3.8334,0,0,0,0,0,0,0,0,0,0,0,0,0,3.8242,3.8243,3.83,3.8301,3.8301,3.8324,3.8324,3.8325,3.8313,3.8312,3.8311,3.831,3.8331,3.8332,3.8334,0,0,0,0,0,0,0,0,0,0,0,0,0,3.8267,3.8244,3.83,3.8298,3.8298,3.8324,3.8324,3.8325,3.8313,3.8312,3.8311,3.831,3.8331,3.8332,3.8334,3.8363,0,0,3.8339,3.834,0,0,0,0,0,0,0,0,3.8265,3.8269,3.8298,3.8298,3.8298,3.8314,3.8311,3.8337,3.8313,3.8307,3.8311,3.831,3.8326,3.8328,3.8335,3.8364,3.8365,3.8339,3.834,3.8341,3.8342,0,0,0,0,0,0,0,3.8264,3.8268,3.831,3.8298,3.8298,3.8295,3.8297,3.8316,3.8321,3.8307,3.8307,3.831,3.8326,3.8333,3.8335,3.8365,3.8339,3.8341,3.8342,3.8342,3.8419,3.842,0,0,0,0,0,0,3.8262,3.8266,3.8309,3.831,3.8279,3.8296,3.8299,3.831,3.8321,3.8322,3.831,3.8309,3.8331,3.8333,3.8336,3.837,3.8341,3.8343,3.8344,3.8418,3.8419,3.8421,0,0,0,0,0,0,3.8261,3.8266,3.8308,3.8288,3.8293,3.8298,3.8311,3.8311,3.8318,3.8324,3.8324,3.8317,3.833,3.8333,3.8356,3.8371,3.8343,3.8345,3.8417,3.8419,3.842,3.8439,0,0,0,0,0,0,3.826,3.8266,3.8278,3.8289,3.8294,3.8329,3.8312,3.8312,3.8321,3.832,3.833,3.833,3.833,3.8354,3.8358,3.8373,3.8346,3.8416,3.8418,3.842,3.8437,3.8441,3.8445,0,0,0,0,0,3.8258,3.8281,3.8278,3.8283,3.8309,3.833,3.8333,3.8333,3.8322,3.8334,3.8337,3.833,3.8369,3.8356,3.8361,3.8376,3.8415,3.8417,3.8419,3.8436,3.8441,3.8445,0,0,0,0,0,0,3.827,3.8283,3.8279,3.8307,3.8318,3.8328,3.8342,3.8338,3.835,3.8348,3.8346,3.8348,3.8372,3.8377,3.8363,3.8405,3.839,3.8393,3.8401,3.8406,3.8409,3.8407,3.8348,0,0,0,0,0,3.8276,3.8293,3.8303,3.8327,3.8332,3.8336,3.8345,3.8344,3.8355,3.8359,3.8364,3.8373,3.8388,3.8397,3.841,3.8438,3.844,3.8451,3.8455,3.8458,3.846,3.8475,3.848,3.8428,3.8428,3.8428,0,0,3.8289,3.8298,3.8308,3.833,3.8337,3.8354,3.834,3.8358,3.837,3.8361,3.8383,3.8388,3.8398,3.8424,3.8435,3.8428,3.8475,3.8461,3.8463,3.8464,3.8478,3.8483,3.8487,3.843,3.8429,3.8429,0,0,3.832,3.8329,3.835,3.8359,3.8372,3.8375,3.838,3.8391,3.8394,3.8417,3.841,3.8424,3.8449,3.8456,3.8464,3.85,3.8493,3.8504,3.8522,3.8537,3.8541,3.8545,3.8557,3.8561,3.8507,3.8507,3.8507,0,3.8334,3.836,3.8361,3.838,3.8389,3.8384,3.8404,3.8412,3.8428,3.8435,3.8427,3.8458,3.8465,3.8492,3.8501,3.8507,3.8512,3.8502,3.8541,3.8544,3.8548,3.8559,3.8564,3.8508,3.8508,3.8508,3.8508,0,3.8376,3.8394,3.8409,3.8426,3.8438,3.8457,3.8461,3.8472,3.847,3.8474,3.8497,3.8505,3.852,3.8527,3.8525,3.8554,3.8549,3.8541,3.8526,3.8554,3.8565,3.8569,3.851,3.8509,3.8509,3.8509,0,0,3.8414,3.8433,3.8438,3.8447,3.8461,3.8474,3.8494,3.851,3.8519,3.8531,3.8547,3.8569,3.8562,3.857,3.8569,3.8582,3.8609,3.8572,3.8573,3.8578,3.8642,3.8647,3.8652,3.8606,3.8607,3.8607,3.8641,0,3.8446,3.8481,3.8483,3.8515,3.8532,3.8527,3.8544,3.8554,3.8558,3.8572,3.8576,3.8592,3.8582,3.8587,3.8599,3.8603,3.8622,3.8601,3.8619,3.862,3.8616,3.8658,3.8663,3.8694,3.8645,3.8646,3.8646,0,3.8487,3.8502,3.8536,3.8549,3.8556,3.8571,3.8586,3.86,3.8612,3.8614,3.8624,3.8621,3.864,3.8626,3.8652,3.8638,3.8645,3.8649,3.865,3.8651,3.8634,3.8659,3.8704,3.8709,3.8653,3.8652,3.8652,0,3.8511,3.8539,3.8563,3.857,3.8586,3.8597,3.8604,3.8615,3.8624,3.8638,3.8644,3.8659,3.8666,3.8677,3.8679,3.8668,3.8705,3.869,3.8706,3.8706,3.8713,3.8712,3.8759,3.872,3.872,3.872,3.8719,0,3.8546,3.8566,3.8574,3.8589,3.8612,3.8614,3.8636,3.8642,3.8652,3.8667,3.8664,3.8678,3.8679,3.8694,3.8695,3.8716,3.872,3.8721,3.8721,3.8721,3.8721,3.8725,3.8722,3.8721,3.872,3.872,3.872,0,3.8576,3.8582,3.8608,3.8621,3.8625,3.8641,3.8652,3.8666,3.8671,3.869,3.8694,3.87,3.8717,3.872,3.8739,3.874,3.8765,3.8763,3.8762,3.8761,3.8776,3.8775,3.8827,3.8834,3.879,3.8791,3.8791,0,3.8597,3.8613,3.8629,3.864,3.8648,3.8665,3.8675,3.8678,3.8689,3.8704,3.8716,3.8732,3.8746,3.8772,3.8778,3.8793,3.879,3.8808,3.8792,3.8792,3.879,3.8789,3.879,3.881,3.8811,3.8811,3.8812,0,3.8634,3.8637,3.8653,3.867,3.8683,3.8697,3.8709,3.8718,3.8723,3.8735,3.8753,3.8763,3.8784,3.88,3.8815,3.8821,3.8817,3.8817,3.8821,3.882,3.8819,3.8819,3.8769,3.8815,3.8815,3.8814,3.8814,3.8814,3.866,3.8674,3.8688,3.8706,3.8716,3.8729,3.8742,3.8749,3.8764,3.8782,3.8783,3.8802,3.8814,3.8834,3.8841,3.8855,3.8849,3.8856,3.8857,3.8858,3.886,3.8817,3.8858,3.8858,3.8858,3.8858,3.8857,0,3.8696,3.8705,3.8722,3.8741,3.8755,3.8752,3.8766,3.8778,3.8795,3.8807,3.8821,3.8841,3.8857,3.8865,3.8881,3.8891,3.8889,3.8895,3.8893,3.8895,3.8864,3.8859,3.8896,3.8896,3.8896,3.8895,3.8895,3.8895,3.8717,3.8741,3.8745,3.8774,3.8783,3.8803,3.8811,3.8822,3.8832,3.8855,3.8869,3.8875,3.8885,3.8901,3.8915,3.8917,3.8923,3.8929,3.893,3.8901,3.8897,3.8893,3.8888,3.893,3.893,3.8959,3.8959,3.8959]}]]